Weather History for KFLG - October, 2012

Change the Weather History Date:

Thursday, October 18, 2012

  Actual Average Record
Temperature  
Mean Temperature 50 °F 46 °F  
Max Temperature 72 °F 61 °F 78 °F (1921)
Min Temperature 27 °F 31 °F 10 °F (1971)
Degree Days  
Heating Degree Days 15 19  
Month to date heating degree days 234 290  
Since 1 July heating degree days 444 607  
Cooling Degree Days 0 0  
Month to date cooling degree days 0 0  
Year to date cooling degree days 164 117  
Moisture  
Dew Point 19 °F    
Average Humidity 44    
Maximum Humidity 75    
Minimum Humidity 12    
Precipitation  
Precipitation 0.00 in 0.06 in 1.75 in (1949)
Month to date precipitation 1.03 1.00  
Year to date precipitation 11.79 17.57  
Snow  
Snow 0.00 in 0.10 in 5.50 in (1908)
Month to date snowfall T 0.5  
Since 1 July snowfall T 0.5  
Snow Depth 0.00 in    
Sea Level Pressure  
Sea Level Pressure 30.14 in    
Wind  
Wind Speed 1 mph (ESE)    
Max Wind Speed 12 mph    
Max Gust Speed 15 mph    
Visibility 10 miles    
Events      
T = Trace of Precipitation, MM = Missing Value Source: NWS Daily Summary

Daily Weather History Graph

Daily Weather History Graph

Search for Another Location

Airport or City:

Trip Planner

Search our weather history database for the weather conditions in past years. The results will help you decide how hot, cold, wet, or windy it might be!

Date:

Astronomy

Oct. 18, 2012 Rise Set
Actual Time 6:35 AM MST 5:47 PM MST
Civil Twilight 6:10 AM MST 6:12 PM MST
Nautical Twilight 5:40 AM MST 6:42 PM MST
Astronomical Twilight 5:11 AM MST 7:11 PM MST
Moon 10:13 AM MST (10/18) 8:33 PM MST (10/18)
Length of Visible Light 12h 02m
Length of Day
11h 11m
Waxing Crescent, 15% of the Moon is Illuminated
Oct 18
Waxing Crescent
Oct 21
First Quarter
Oct 29
Full
Nov 6
Last Quarter
Nov 13
New

Hourly Weather History & Observations

Time (MST) Temp. Dew Point Humidity Pressure Visibility Wind Dir Wind Speed Gust Speed Precip Events Conditions
12:57 AM 33.1 °F 23.0 °F 66% 30.07 in 10.0 mi Calm Calm - N/A   Clear
1:57 AM 30.9 °F 19.9 °F 64% 30.08 in 10.0 mi Calm Calm - N/A   Clear
2:57 AM 30.9 °F 19.0 °F 61% 30.06 in 10.0 mi Calm Calm - N/A   Clear
3:57 AM 28.9 °F 19.9 °F 69% 30.07 in 10.0 mi Calm Calm - N/A   Clear
4:57 AM 28.0 °F 19.0 °F 69% 30.10 in 10.0 mi Calm Calm - N/A   Clear
5:57 AM 28.0 °F 19.9 °F 72% 30.14 in 10.0 mi Calm Calm - N/A   Clear
6:57 AM 28.0 °F 21.0 °F 75% 30.18 in 10.0 mi Calm Calm - N/A   Clear
7:57 AM 41.0 °F 26.1 °F 55% 30.18 in 10.0 mi Calm Calm - N/A   Clear
8:47 AM 51.8 °F 21.2 °F 30% 30.31 in 10.0 mi ENE 3.5 mph - N/A   Partly Cloudy
8:57 AM 53.1 °F 17.1 °F 24% 30.15 in 10.0 mi East 5.8 mph - N/A   Clear
9:57 AM 59.0 °F 16.0 °F 19% 30.14 in 10.0 mi East 6.9 mph - N/A   Clear
10:57 AM 63.0 °F 17.1 °F 17% 30.14 in 10.0 mi Variable 3.5 mph - N/A   Clear
11:57 AM - - N/A% 30.32 in - North - - N/A   Unknown
12:57 PM 66.0 °F 16.0 °F 15% 30.11 in 10.0 mi Calm Calm - N/A   Clear
1:57 PM 69.1 °F 17.1 °F 14% 30.09 in 10.0 mi Calm Calm - N/A   Clear
2:57 PM 70.0 °F 17.1 °F 13% 30.07 in 10.0 mi Calm Calm - N/A   Clear
3:57 PM 68.0 °F 24.1 °F 19% 30.08 in 10.0 mi SW 9.2 mph - N/A   Clear
4:57 PM 66.9 °F 12.0 °F 12% 30.09 in 10.0 mi ESE 3.5 mph - N/A   Clear
5:57 PM 59.0 °F 14.0 °F 17% 30.14 in 10.0 mi ESE 3.5 mph - N/A   Clear
6:57 PM 48.9 °F 17.1 °F 28% 30.19 in 10.0 mi Calm Calm - N/A   Clear
7:57 PM 44.1 °F 17.1 °F 34% 30.16 in 10.0 mi Calm Calm - N/A   Clear
8:57 PM 39.9 °F 19.0 °F 43% 30.13 in 10.0 mi Calm Calm - N/A   Clear
9:57 PM 37.0 °F 19.0 °F 48% 30.12 in 10.0 mi Calm Calm - N/A   Clear
10:57 PM 34.0 °F 19.0 °F 54% 30.11 in 10.0 mi Calm Calm - N/A   Clear
11:57 PM 33.1 °F 19.9 °F 59% 30.28 in 10.0 mi Calm Calm - N/A   Clear